Home > Time Zones > World Clock > Weather > Italy > Monza > Past weeks

Flag for Italy Weather past 2 weeks in Monza, Italy

Now
41 °F

Sunny.


Feels Like: 41 °F
Forecast: 29 / 44 °F
Wind: 2 mph from North

Location: Milan / Linate

Current Time: Jan 31, 2015 at 6:03:37 PM

Latest Report: Jan 31, 2015 at 5:20 PM


Visibility: 10 mi

Pressure: 29.15 "Hg

Humidity: 70%

Dew point: 32 °F

Location of MonzaLocation

Historic Weather in Monza — Graph

°F

Monza temperature yesterday

Maximum temperature yesterday: 48 °F (at 3:20 PM)
Minimum temperature yesterday: 32 °F (at 1:50 AM)
Average temperature yesterday: 38 °F

Past Weeks' High & Low Weather Summary

 TemperatureHumidityPressure
High55 °F (Jan 17, 2:20 PM)100% (Jan 16, 4:20 PM)30.27 "Hg (Jan 16, 4:20 PM)
Low27 °F (Jan 31, 4:50 AM)28% (Jan 25, 4:20 PM)28.85 "Hg (Jan 30, 11:50 AM)
Average39 °F86%29.81 "Hg
* Reported Jan 16 4:20 PM — Jan 31 4:20 PM, Monza, Weather by CustomWeather, © 2014

Note: Actual official high and low records may vary slightly from our data, if they occured in-between our weather recording intervals... More about our weather records

Advertising

Monza weather history for previous 24 hours

 ConditionsComfort  
Time TempWeatherWind HumidityBarometerVisibility
4:20 PM
Jan 31
43 °FPassing clouds.5 mph71%29.12 "HgN/A
3:50 PM43 °FSunny.2 mph66%29.12 "Hg10 mi
3:20 PM43 °FPassing clouds.5 mph66%29.12 "HgN/A
2:50 PM43 °FPassing clouds.6 mph71%29.12 "HgN/A
2:20 PM43 °FPassing clouds.8 mph66%29.12 "HgN/A
1:50 PM43 °FPassing clouds.8 mph66%29.12 "HgN/A
1:20 PM41 °FPassing clouds.8 mph70%29.12 "HgN/A
12:50 PM41 °FPassing clouds.8 mph70%29.15 "HgN/A
12:20 PM41 °FPassing clouds.7 mph76%29.15 "HgN/A
11:50 AM39 °FPassing clouds.7 mph75%29.15 "HgN/A
11:20 AM39 °FSunny.9 mph75%29.15 "Hg10 mi
10:50 AM37 °FSunny.8 mph75%29.12 "Hg10 mi
10:20 AM36 °FPassing clouds.7 mph75%29.12 "HgN/A
9:50 AM36 °FSunny.8 mph75%29.12 "Hg10 mi
9:20 AM34 °FPassing clouds.6 mph75%29.12 "HgN/A
8:50 AM34 °FSunny.7 mph75%29.09 "Hg10 mi
8:20 AM32 °FSunny.6 mph69%29.09 "Hg10 mi
7:50 AM32 °FSunny.7 mph69%29.06 "Hg10 mi
7:20 AM30 °FClear.5 mph75%29.06 "Hg10 mi
6:50 AM28 °FPassing clouds.3 mph86%29.06 "HgN/A
6:20 AM28 °FClear.2 mph93%29.06 "Hg10 mi
5:50 AM27 °FClear.1 mph100%29.03 "Hg10 mi
5:20 AM28 °FClear.1 mph93%29.03 "Hg10 mi
4:50 AM27 °FClear.3 mph100%29.03 "Hg10 mi
3:50 AM28 °FClear.1 mph93%29.00 "Hg10 mi
3:20 AM30 °FClear.3 mph93%29.00 "Hg10 mi
2:50 AM30 °FClear.2 mph93%29.00 "Hg10 mi
2:20 AM30 °FClear.1 mph93%29.00 "Hg10 mi
1:50 AM30 °FClear.1 mph86%29.00 "Hg10 mi
1:20 AM32 °FClear.1 mph80%29.00 "Hg10 mi
12:50 AM32 °FClear.1 mph75%29.00 "Hg10 mi
12:20 AM34 °FClear.1 mph75%29.00 "Hg10 mi
11:50 PM
Jan 30
36 °FClear.3 mph65%28.97 "Hg10 mi
11:20 PM36 °FClear.5 mph70%28.97 "Hg10 mi
10:50 PM36 °FClear.2 mph75%28.97 "Hg10 mi
10:20 PM34 °FClear.3 mph81%28.94 "Hg10 mi
9:50 PM37 °FClear.No wind65%28.94 "Hg10 mi
9:20 PM36 °FClear.2 mph70%28.94 "Hg10 mi
8:50 PM37 °FClear.5 mph70%28.94 "Hg10 mi
8:20 PM41 °FClear.5 mph57%28.94 "Hg10 mi
7:50 PM41 °FClear.5 mph61%28.94 "Hg10 mi
7:20 PM41 °FPassing clouds.3 mph57%28.94 "HgN/A
6:50 PM43 °FPassing clouds.6 mph57%28.91 "HgN/A
6:20 PM43 °FClear.5 mph53%28.91 "Hg10 mi
Weather by CustomWeather, © 2014

See weather overviewHow to use our weather pages